DELTA 1 DEB, 10845

Orbit data source: Space-Track

DELTA 1 DEB, 10845 is space debris in SSO originally from a launch on Thu, 29 Jul 1976 UTC launched from the Air Force Western Test Range (AFWTR). Debris objects in space refer to the collection of defunct objects orbiting the Earth. Examples of debris include non-operational satellites, rocket bodies, and fragments generated from explosions, collisions, or faulty payload assembly.

Loading next visibility...
Identifier
10845, 1976-077CR
Orbit
SSO
Country
Flag of USUS
Related business
Manufacturer
Unknown
Mission
Spacecraft
Bus & Motor
Unknown
Mass
Unknown
Launch date (UTC)
1976-07-29 (50 years ago)
Launch vehicle
Unknown
Launch site
Air Force Western Test Range (AFWTR)
Object type
Payload
Rocket body
Debris
Shape & HBR
Unknown shape, 0.1 m
Radar Cross Section
Small (<0.1 m²)

Expand to show TLE details & history
Last TLE update: 2 days ago

TLE from 2 days ago
0 DELTA 1 DEB
1 10845U 76077CR  26072.22266696 -.00000080  00000-0 -38953-3 0  9992
2 10845 102.3335 177.4054 0173093  17.0144  14.4256 12.10160116191850
Epoch: 2026-03-13T05:20Z
TLE epoch observation values (Epoch: 2026-03-13T05:20:38.425Z)
Latitude
31.17784°
Longitude
-81.18114°
Altitude
1,505.092 km
Speed
7.174 km/s
True Right ascension
11h 19m 21s
True Declination
31° 02' 25"
Sunlit
Object was in full shadow at epoch
Visualization orbit readout
Latitude
Unknown
Longitude
Unknown
Altitude
Unknown
Speed
Unknown
Apparent Right ascension
Unknown
Apparent Declination
Unknown
Sunlit
N/A
Visualization observer readout
Local Sidereal Time
04:49:55
Azimuth
Unknown
Elevation
Unknown
Doppler factor
Unknown
Orbital elements
Apogee altitude
1,771.995 km
Perigee altitude
1,494.65 km
Semi-major axis
8,011.459 km
Eccentricity
0.01731
Inclination
102.3335°
RAAN
177.4054°
Arg. of periapsis
17.0144°
True anomaly
14.93029°
Mean anomaly
14.4256°
Eccentric anomaly
14.67688°
Mean motion
3.02674 °/min
Orbital period
118.94 mins
BSTAR
-0.00038953
Loading maneuver chart data...
Computing Atmospheric mass density...
Loading historical data...
Loading historical data...
Loading historical data...
Loading historical data...
Loading historical data...
Loading historical data...
Loading historical data...

Documentation

Showing up to 5 results
|